User: anonymous   Login
Location: Hepcat Sky Observatory
(29.9800°N, 95.6500°W)
Time: 10:11:14
(UTC-05:00)
Language:

Cosmos 2151 Rocket - Orbit

View from above orbital plane
View from above orbital plane
View from above satellite
View from above satellite

Ground track
Ground track

The orbit data is extracted from the following two-line orbital elements,

1 21423U 91042B   15108.43636990  .00000474  00000-0  60364-4 0  9991
2 21423 082.4945 340.2797 0016789 324.3897 035.6194 14.79470683285658
Epoch (UTC): 18 April 2015 10:28:22
Eccentricity: 0.0016789
inclination: 82.4945°
perigee height: 619 km
apogee height: 643 km
right ascension of ascending node: 340.2797°
argument of perigee: 324.3897°
revolutions per day: 14.79470683
mean anomaly at epoch: 35.6194°
orbit number at epoch: 28565

The dashed part of the orbit path shows where the satellite is in the earth's shadow,  

DLR